カタログに戻る

DELTA 1 DEB

運用中SSO
NORAD 21465·DEBRIS·🇺🇸 United States

打ち上げ Jun 12, 1975 から Vandenberg Space Force Base

Loading…

次のパス (今後24時間)

TLE

最新Source: Space-Track

元期: Sep 14, 2026, 14:14 UTC

1 21465U 75052EZ  26257.59339882  .00000140  00000-0  28883-3 0  9993
2 21465  99.6099 119.4831 0067246 222.6823 166.0891 13.48888354737144

AllMySatでDELTA 1 DEBをリアルタイム追跡

Download on the App Store